Aoxiang-1 (42735 NORAD) Tracking and Keplerian Element Data

This shows tracking and keplerian element data for the satellite.

Feedback or suggestion? Click here.




ElementValue
Catalog42735
NameAoxiang-1
Epoch Orbit8895
Epoch Day341.46597007
Epoch Year2018
RAAN194.4346
Inclination51.631
Eccentricity0.0006212
Argument of Perigee162.8299
Mean Anonmoly264.9052
Mean Motion15.75551153
Decay Rate0.00029203
L11 42735U 98067MQ 18341.46597007 .00029203 00000-0 19093-3 0 9997
L22 42735 51.6310 194.4346 0006212 162.8299 264.9052 15.75551153 88954

Live tracking and technical data element details for Aoxiang-1 (NORAD 42735). Aoxiang-1 can be tracked NOW for your location showing map with azimuth and elevation plus other details from your city location.

Track the satellite on the map from your city or location and see movement details for azimuth, elevation, latitude, longitude, range, height, and movement on the map or in text.







IsCatalogInMostPopularTable: catalog: 42735, numindb: 169
Update: records affected: 1



GetName: 42735 Aoxiang-1

Hit Count: updated at: Thu, 13 Dec 2018 03:27:00 GMT